timestamp,wind_dir_avg,wind_spd_avg,wind_spd_max_dir,wind_spd_gust,battery_voltage,lat,long
2021-08-21 00:04:00+00:00,51.0,11.59,51.0,13.15,12.65,47.59359,-54.27349
2021-08-21 00:14:01+00:00,47.0,11.97,49.0,13.38,12.65,47.59359,-54.27349
2021-08-21 00:24:01+00:00,46.0,11.48,47.0,12.87,12.65,47.59359,-54.27349
2021-08-21 00:34:01+00:00,44.0,11.99,48.0,14.23,12.65,47.59359,-54.27349
2021-08-21 00:44:01+00:00,51.0,13.27,52.0,14.29,12.65,47.59359,-54.27349
2021-08-21 00:54:01+00:00,55.0,10.75,53.0,12.1,12.65,47.59359,-54.27349
2021-08-21 01:04:01+00:00,57.0,10.48,54.0,11.9,12.65,47.59359,-54.27349
2021-08-21 01:14:01+00:00,55.0,10.09,54.0,11.69,12.65,47.59359,-54.27349
2021-08-21 01:24:01+00:00,51.0,12.28,49.0,14.12,12.65,47.59359,-54.27349
2021-08-21 01:34:01+00:00,55.0,12.48,58.0,14.44,12.65,47.59359,-54.27349
2021-08-21 01:44:01+00:00,50.0,12.74,48.0,13.9,12.65,47.59359,-54.27349
2021-08-21 01:54:01+00:00,56.0,12.58,54.0,14.87,12.65,47.59359,-54.27349
2021-08-21 02:04:01+00:00,54.0,12.52,54.0,13.95,12.65,47.59359,-54.27349
2021-08-21 02:14:01+00:00,51.0,13.17,51.0,15.55,12.65,47.59359,-54.27349
2021-08-21 02:24:01+00:00,51.0,11.32,48.0,12.79,12.65,47.59359,-54.27349
2021-08-21 02:34:01+00:00,56.0,11.51,56.0,13.39,12.65,47.59359,-54.27349
2021-08-21 02:44:01+00:00,62.0,11.53,57.0,14.46,12.65,47.59359,-54.27349
2021-08-21 02:54:01+00:00,61.0,10.49,64.0,12.69,12.65,47.59359,-54.27349
2021-08-21 03:04:01+00:00,66.0,9.86,60.0,11.55,12.65,47.59359,-54.27349
2021-08-21 03:14:01+00:00,61.0,9.87,59.0,12.08,12.57,47.59359,-54.27349
2021-08-21 03:24:01+00:00,69.0,10.52,70.0,11.92,12.57,47.59359,-54.27349
2021-08-21 03:34:01+00:00,52.0,10.17,52.0,11.99,12.57,47.59359,-54.27349
2021-08-21 03:44:01+00:00,63.0,9.95,59.0,11.93,12.57,47.59359,-54.27349
2021-08-21 03:54:01+00:00,67.0,8.36,70.0,9.58,12.57,47.59359,-54.27349
2021-08-21 04:04:01+00:00,67.0,9.04,69.0,10.26,12.57,47.59359,-54.27349
2021-08-21 04:14:01+00:00,64.0,8.0,57.0,9.26,12.57,47.59359,-54.27349
2021-08-21 04:24:01+00:00,57.0,8.24,54.0,10.0,12.57,47.59359,-54.27349
2021-08-21 04:34:01+00:00,58.0,9.21,59.0,9.94,12.57,47.59359,-54.27349
2021-08-21 04:44:01+00:00,55.0,8.99,54.0,11.59,12.57,47.59359,-54.27349
2021-08-21 04:54:01+00:00,62.0,8.81,59.0,10.39,12.57,47.59359,-54.27349
2021-08-21 05:04:01+00:00,61.0,8.9,68.0,12.16,12.57,47.59359,-54.27349
2021-08-21 05:14:01+00:00,60.0,8.81,55.0,10.46,12.57,47.59359,-54.27349
2021-08-21 05:24:01+00:00,59.0,9.43,59.0,10.83,12.57,47.59359,-54.27349
2021-08-21 05:34:01+00:00,66.0,8.51,65.0,9.88,12.57,47.59359,-54.27349
2021-08-21 05:44:01+00:00,55.0,9.93,55.0,11.12,12.57,47.59359,-54.27349
2021-08-21 05:54:01+00:00,53.0,9.72,53.0,11.16,12.57,47.59359,-54.27349
2021-08-21 06:04:01+00:00,58.0,9.79,58.0,11.45,12.57,47.59359,-54.27349
2021-08-21 06:14:01+00:00,52.0,10.05,49.0,11.41,12.49,47.59359,-54.27349
2021-08-21 06:24:01+00:00,56.0,9.6,50.0,10.53,12.49,47.59359,-54.27349
2021-08-21 06:34:01+00:00,52.0,10.32,53.0,11.29,12.49,47.59359,-54.27349
2021-08-21 06:44:01+00:00,51.0,9.15,47.0,10.26,12.49,47.59359,-54.27349
2021-08-21 06:54:01+00:00,53.0,9.27,54.0,10.72,12.49,47.59359,-54.27349
2021-08-21 07:04:01+00:00,60.0,8.67,54.0,9.71,12.49,47.59359,-54.27349
2021-08-21 07:14:01+00:00,61.0,9.61,60.0,10.7,12.49,47.59359,-54.27349
2021-08-21 07:24:01+00:00,52.0,8.54,48.0,9.94,12.49,47.59359,-54.27349
2021-08-21 07:34:01+00:00,52.0,9.79,45.0,10.86,12.49,47.59359,-54.27349
2021-08-21 07:44:01+00:00,50.0,8.46,57.0,10.16,12.49,47.59359,-54.27349
2021-08-21 07:54:01+00:00,50.0,10.28,46.0,11.33,12.49,47.59359,-54.27349
2021-08-21 08:04:01+00:00,52.0,9.8,52.0,11.04,12.49,47.59359,-54.27349
2021-08-21 08:14:01+00:00,51.0,8.58,51.0,9.55,12.41,47.59359,-54.27349
2021-08-21 08:24:01+00:00,48.0,8.36,44.0,9.61,12.41,47.59359,-54.27349
2021-08-21 08:34:01+00:00,45.0,9.2,49.0,10.35,12.41,47.59359,-54.27349
2021-08-21 08:44:01+00:00,49.0,9.42,47.0,10.53,12.41,47.59359,-54.27349
2021-08-21 08:54:01+00:00,51.0,9.18,52.0,10.22,12.41,47.59359,-54.27349
2021-08-21 09:04:01+00:00,46.0,10.3,52.0,11.8,12.41,47.59359,-54.27349
2021-08-21 09:14:01+00:00,46.0,10.52,43.0,11.55,12.41,47.59359,-54.27349
2021-08-21 09:24:01+00:00,42.0,9.97,41.0,11.41,12.41,47.59359,-54.27349
2021-08-21 09:34:01+00:00,43.0,10.39,46.0,11.56,12.41,47.59359,-54.27349
2021-08-21 09:44:01+00:00,50.0,9.89,53.0,10.89,12.41,47.59359,-54.27349
2021-08-21 09:54:01+00:00,47.0,9.1,47.0,9.92,12.41,47.59359,-54.27349
2021-08-21 10:04:01+00:00,47.0,9.75,46.0,10.39,12.41,47.59359,-54.27349
2021-08-21 10:14:01+00:00,50.0,9.17,43.0,10.19,12.73,47.59359,-54.27349
2021-08-21 10:24:01+00:00,46.0,8.31,58.0,10.27,12.73,47.59359,-54.27349
2021-08-21 10:34:01+00:00,45.0,9.08,50.0,10.55,12.73,47.59359,-54.27349
2021-08-21 10:44:01+00:00,44.0,9.09,44.0,10.27,12.73,47.59359,-54.27349
2021-08-21 10:54:01+00:00,52.0,9.03,53.0,9.94,12.73,47.59359,-54.27349
2021-08-21 11:04:01+00:00,42.0,8.0,44.0,9.51,12.73,47.59359,-54.27349
2021-08-21 11:14:01+00:00,50.0,8.08,45.0,9.26,13.29,47.59359,-54.27349
2021-08-21 11:24:01+00:00,45.0,8.06,46.0,8.85,13.29,47.59359,-54.27349
2021-08-21 11:34:01+00:00,45.0,7.57,37.0,8.71,13.29,47.59359,-54.27349
2021-08-21 11:44:01+00:00,41.0,7.96,47.0,8.98,13.29,47.59359,-54.27349
2021-08-21 11:54:01+00:00,53.0,8.52,60.0,10.34,13.29,47.59359,-54.27349
2021-08-21 12:04:01+00:00,63.0,6.74,59.0,7.83,13.29,47.59359,-54.27349
2021-08-21 12:14:01+00:00,52.0,7.13,48.0,8.47,13.76,47.59359,-54.27349
2021-08-21 12:24:01+00:00,40.0,7.72,38.0,9.08,13.76,47.59359,-54.27349
2021-08-21 12:34:01+00:00,37.0,8.08,39.0,8.72,13.76,47.59359,-54.27349
2021-08-21 12:44:01+00:00,50.0,6.42,51.0,7.31,13.76,47.59359,-54.27349
2021-08-21 12:54:01+00:00,56.0,7.12,53.0,8.78,13.76,47.59359,-54.27349
2021-08-21 13:04:01+00:00,42.0,6.74,46.0,8.14,13.76,47.59359,-54.27349
2021-08-21 13:14:01+00:00,48.0,5.26,55.0,5.86,13.84,47.59359,-54.27349
2021-08-21 13:24:01+00:00,41.0,5.45,36.0,6.44,13.84,47.59359,-54.27349
2021-08-21 13:34:01+00:00,47.0,6.46,47.0,7.39,13.84,47.59359,-54.27349
2021-08-21 13:44:01+00:00,48.0,5.33,46.0,6.09,13.84,47.59359,-54.27349
2021-08-21 13:54:01+00:00,38.0,5.58,39.0,6.26,13.84,47.59359,-54.27349
2021-08-21 14:04:01+00:00,53.0,5.0,46.0,5.94,13.84,47.59359,-54.27349
2021-08-21 14:14:01+00:00,55.0,3.46,55.0,3.98,14.32,47.59359,-54.27349
2021-08-21 14:24:01+00:00,44.0,2.88,66.0,3.99,14.32,47.59359,-54.27349
2021-08-21 14:34:01+00:00,61.0,4.01,77.0,4.92,14.32,47.59359,-54.27349
2021-08-21 14:44:01+00:00,67.0,2.85,59.0,3.42,14.32,47.59359,-54.27349
2021-08-21 14:54:01+00:00,73.0,3.1,73.0,3.84,14.32,47.59359,-54.27349
2021-08-21 15:04:01+00:00,73.0,2.74,74.0,3.12,14.32,47.59359,-54.27349
2021-08-21 15:14:01+00:00,47.0,2.54,33.0,3.25,14.08,47.59359,-54.27349
2021-08-21 15:24:01+00:00,68.0,3.08,64.0,3.72,14.08,47.59359,-54.27349
2021-08-21 15:34:01+00:00,69.0,2.77,68.0,3.29,14.08,47.59359,-54.27349
2021-08-21 15:44:01+00:00,69.0,3.27,65.0,3.93,14.08,47.59359,-54.27349
2021-08-21 15:54:01+00:00,69.0,3.47,65.0,3.77,14.08,47.59359,-54.27349
2021-08-21 16:04:01+00:00,59.0,2.53,59.0,3.01,14.08,47.59359,-54.27349
2021-08-21 16:14:01+00:00,64.0,2.43,63.0,3.13,14.32,47.59359,-54.27349
2021-08-21 16:24:01+00:00,61.0,2.57,57.0,3.11,14.32,47.59359,-54.27349
2021-08-21 16:34:01+00:00,61.0,2.44,65.0,2.67,14.32,47.59359,-54.27349
2021-08-21 16:44:01+00:00,73.0,1.81,73.0,2.08,14.32,47.59359,-54.27349
2021-08-21 16:54:01+00:00,57.0,2.26,61.0,2.73,14.32,47.59359,-54.27349
2021-08-21 17:04:01+00:00,62.0,1.6,61.0,1.98,14.32,47.59359,-54.27349
2021-08-21 17:14:01+00:00,60.0,2.04,59.0,2.37,13.92,47.59359,-54.27349
2021-08-21 17:24:01+00:00,55.0,2.26,50.0,2.64,13.92,47.59359,-54.27349
2021-08-21 17:34:01+00:00,57.0,2.43,58.0,2.8,13.92,47.59359,-54.27349
2021-08-21 17:44:01+00:00,69.0,2.0,73.0,2.35,13.92,47.59359,-54.27349
2021-08-21 17:54:01+00:00,56.0,1.99,58.0,2.66,13.92,47.59359,-54.27349
2021-08-21 18:04:01+00:00,67.0,1.81,53.0,2.14,13.92,47.59359,-54.27349
2021-08-21 18:14:01+00:00,61.0,1.42,69.0,1.74,13.84,47.59359,-54.27349
2021-08-21 18:24:01+00:00,54.0,0.76,50.0,0.94,13.84,47.59359,-54.27349
2021-08-21 18:34:01+00:00,134.0,0.93,139.0,1.07,13.84,47.59359,-54.27349
2021-08-21 18:44:01+00:00,176.0,1.28,179.0,1.47,13.84,47.59359,-54.27349
2021-08-21 18:54:01+00:00,215.0,1.6,215.0,1.93,13.84,47.59359,-54.27349
2021-08-21 19:04:01+00:00,225.0,2.09,214.0,2.68,13.84,47.59359,-54.27349
2021-08-21 19:14:01+00:00,221.0,3.4,224.0,4.1,13.76,47.59359,-54.27349
2021-08-21 19:24:01+00:00,207.0,4.06,205.0,4.56,13.76,47.59359,-54.27349
2021-08-21 19:34:01+00:00,216.0,3.71,213.0,4.29,13.76,47.59359,-54.27349
2021-08-21 19:44:01+00:00,277.0,3.33,282.0,3.65,13.76,47.59359,-54.27349
2021-08-21 19:54:01+00:00,355.0,3.18,348.0,3.91,13.76,47.59359,-54.27349
2021-08-21 20:04:01+00:00,39.0,9.61,37.0,10.44,13.76,47.59359,-54.27349
2021-08-21 20:14:01+00:00,51.0,10.2,50.0,11.27,13.53,47.59359,-54.27349
2021-08-21 20:24:01+00:00,61.0,9.47,61.0,10.57,13.53,47.59359,-54.27349
2021-08-21 20:34:01+00:00,62.0,7.41,63.0,8.65,13.53,47.59359,-54.27349
2021-08-21 20:44:01+00:00,72.0,5.67,70.0,7.02,13.53,47.59359,-54.27349
2021-08-21 20:54:01+00:00,73.0,6.22,71.0,7.53,13.53,47.59359,-54.27349
2021-08-21 21:04:01+00:00,65.0,5.53,64.0,6.48,13.53,47.59359,-54.27349
2021-08-21 21:14:01+00:00,72.0,4.67,76.0,6.06,13.44,47.59359,-54.27349
2021-08-21 21:24:01+00:00,67.0,4.97,71.0,5.69,13.44,47.59359,-54.27349
2021-08-21 21:34:01+00:00,72.0,3.62,69.0,4.55,13.44,47.59359,-54.27349
2021-08-21 21:44:01+00:00,72.0,3.14,70.0,3.8,13.44,47.59359,-54.27349
2021-08-21 21:54:01+00:00,73.0,2.43,68.0,3.68,13.44,47.59359,-54.27349
2021-08-21 22:04:01+00:00,120.0,3.09,120.0,3.59,13.44,47.59359,-54.27349
2021-08-21 22:14:00+00:00,120.0,3.09,121.0,3.75,13.29,47.59359,-54.27349
2021-08-21 22:24:00+00:00,127.0,1.61,139.0,2.91,13.29,47.59359,-54.27349
2021-08-21 22:34:00+00:00,140.0,3.44,136.0,3.99,13.29,47.59359,-54.27349
2021-08-21 22:44:00+00:00,131.0,2.76,129.0,3.49,13.29,47.59359,-54.27349
2021-08-21 22:54:00+00:00,138.0,2.79,136.0,3.21,13.29,47.59359,-54.27349
2021-08-21 23:04:00+00:00,131.0,3.27,127.0,3.87,13.29,47.59359,-54.27349
2021-08-21 23:14:00+00:00,137.0,2.78,130.0,3.45,12.73,47.59359,-54.27349
2021-08-21 23:24:00+00:00,139.0,2.83,136.0,3.41,12.73,47.59359,-54.27349
2021-08-21 23:34:00+00:00,125.0,2.43,124.0,3.06,12.73,47.59359,-54.27349
2021-08-21 23:44:00+00:00,127.0,2.66,133.0,3.36,12.73,47.59359,-54.27349
2021-08-21 23:54:00+00:00,142.0,2.9,142.0,3.22,12.73,47.59359,-54.27349
